Location: *
(31.2983°S, 151.4094°E)
Time: 23:47:32
(UTC+00:00)

Cosmos 468 Rocket - Pass Details

Date: 25 August 2019
Orbit: 744 x 780 km, 74.0° (Epoch: 17 September)

Event Time Altitude Azimuth Distance (km) Brightness Sun altitude
Exits shadow 18:45:57 35° 231° (SW) 1,196 4.6 -20.5°
Maximum altitude 18:47:40 50° 282° (WNW) 957 4.1 -20.1°
Drops below altitude 10° 18:52:38 10° 357° (N) 2,275 6.4 -19.1°
Sets 18:55:03 0° 2° (N) 3,197 7.3 -18.6°
